Tiempo cada hora Dabrowka

Hoy, 2 Agosto, Lunes

Tiempo Temperatura Precipitaciones Viento Presión Humedad
00:00 +15°C° 1.5 mm 4 mps 745 mmHg 93%
01:00 +15°C° 0 mm 4 mps 744 mmHg 95%
02:00 +15°C° 1 mm 4 mps 745 mmHg 95%
03:00 +15°C° 1 mm 4 mps 745 mmHg 95%
04:00 +15°C° 1 mm 4 mps 745 mmHg 94%
05:00 +15°C° 0 mm 4 mps 745 mmHg 92%
06:00 +15°C° 0 mm 4 mps 746 mmHg 90%
07:00 +15°C° 0 mm 4 mps 746 mmHg 88%
08:00 +16°C° 0 mm 5 mps 746 mmHg 83%
09:00 +17°C° 0 mm 5 mps 747 mmHg 78%
10:00 +19°C° 0 mm 6 mps 747 mmHg 72%
11:00 +20°C° 0.2 mm 6 mps 747 mmHg 67%
12:00 +21°C° 0.2 mm 6 mps 748 mmHg 63%
13:00 +22°C° 0.2 mm 6 mps 748 mmHg 58%
14:00 +22°C° 0.2 mm 6 mps 748 mmHg 58%
15:00 +22°C° 0.2 mm 5 mps 748 mmHg 58%
16:00 +21°C° 0.2 mm 5 mps 749 mmHg 58%
17:00 +21°C° 0 mm 5 mps 749 mmHg 59%
18:00 +20°C° 0 mm 5 mps 749 mmHg 59%
19:00 +19°C° 0 mm 4 mps 749 mmHg 60%
20:00 +18°C° 0 mm 4 mps 749 mmHg 63%
21:00 +17°C° 0 mm 4 mps 750 mmHg 66%
22:00 +16°C° 0 mm 3 mps 750 mmHg 69%
23:00 +16°C° 0 mm 3 mps 750 mmHg 68%

Mañana, 3 Agosto, Martes

Tiempo Temperatura Precipitaciones Viento Presión Humedad
00:00 +16°C° 0 mm 3 mps 750 mmHg 66%
01:00 +16°C° 0 mm 3 mps 750 mmHg 65%
02:00 +14°C° 0 mm 3 mps 751 mmHg 69%
03:00 +13°C° 0 mm 3 mps 751 mmHg 73%
04:00 +13°C° 0 mm 3 mps 751 mmHg 76%
05:00 +14°C° 0 mm 3 mps 751 mmHg 71%
06:00 +17°C° 0 mm 4 mps 752 mmHg 65%
07:00 +18°C° 0 mm 4 mps 752 mmHg 59%
08:00 +19°C° 0 mm 5 mps 752 mmHg 55%
09:00 +21°C° 0 mm 5 mps 752 mmHg 51%
10:00 +22°C° 0 mm 6 mps 752 mmHg 46%
11:00 +23°C° 0 mm 5 mps 752 mmHg 45%
12:00 +23°C° 0 mm 5 mps 752 mmHg 44%
13:00 +23°C° 0 mm 5 mps 752 mmHg 43%
14:00 +23°C° 0 mm 5 mps 752 mmHg 42%
15:00 +25°C° 0 mm 4 mps 752 mmHg 41%
16:00 +25°C° 0 mm 4 mps 751 mmHg 41%
17:00 +23°C° 0 mm 4 mps 752 mmHg 45%
18:00 +21°C° 0 mm 3 mps 752 mmHg 49%
19:00 +20°C° 0 mm 2 mps 752 mmHg 53%
20:00 +20°C° 0 mm 2 mps 752 mmHg 53%
21:00 +20°C° 0 mm 1 mps 752 mmHg 52%
22:00 +20°C° 0 mm 1 mps 752 mmHg 52%
23:00 +20°C° 0 mm 1 mps 752 mmHg 53%

Pasado mañana, 4 Agosto, Miércoles

Tiempo Temperatura Precipitaciones Viento Presión Humedad
00:00 +19°C° 0 mm 1 mps 752 mmHg 53%
01:00 +19°C° 0 mm 1 mps 752 mmHg 54%
02:00 +19°C° 0 mm 1 mps 752 mmHg 56%
03:00 +19°C° 0 mm 1 mps 752 mmHg 59%
04:00 +18°C° 0 mm 1 mps 752 mmHg 61%
05:00 +19°C° 0 mm 1 mps 752 mmHg 62%
06:00 +19°C° 0 mm 1 mps 752 mmHg 63%
07:00 +20°C° 0 mm 1 mps 752 mmHg 64%
08:00 +21°C° 0 mm 1 mps 753 mmHg 61%
09:00 +22°C° 0 mm 1 mps 753 mmHg 59%
10:00 +23°C° 0 mm 2 mps 753 mmHg 56%
11:00 +23°C° 0.2 mm 2 mps 752 mmHg 55%
12:00 +23°C° 0.2 mm 2 mps 752 mmHg 55%
13:00 +24°C° 0.2 mm 2 mps 752 mmHg 54%
14:00 +24°C° 0 mm 1 mps 752 mmHg 54%
15:00 +24°C° 0 mm 1 mps 752 mmHg 53%
16:00 +24°C° 0 mm 1 mps 752 mmHg 53%
17:00 +23°C° 0 mm 1 mps 752 mmHg 57%
18:00 +20°C° 0 mm 0 mps 752 mmHg 62%
19:00 +19°C° 0 mm 0 mps 752 mmHg 66%
20:00 +18°C° 0 mm 0 mps 752 mmHg 69%
21:00 +20°C° 0 mm 1 mps 752 mmHg 72%
22:00 +19°C° 0 mm 1 mps 752 mmHg 75%
23:00 +18°C° 0 mm 1 mps 752 mmHg 78%

5 Agosto, Jueves

Tiempo Temperatura Precipitaciones Viento Presión Humedad
00:00 +18°C° 0 mm 1 mps 752 mmHg 80%
01:00 +16°C° 0 mm 1 mps 752 mmHg 83%
02:00 +16°C° 0 mm 1 mps 752 mmHg 84%
03:00 +16°C° 0 mm 2 mps 751 mmHg 86%
04:00 +16°C° 0 mm 2 mps 751 mmHg 87%
05:00 +17°C° 0 mm 2 mps 751 mmHg 82%
06:00 +18°C° 0 mm 2 mps 751 mmHg 76%
07:00 +20°C° 0 mm 2 mps 751 mmHg 70%
08:00 +21°C° 0 mm 3 mps 751 mmHg 65%
09:00 +22°C° 0 mm 3 mps 751 mmHg 60%
10:00 +24°C° 0 mm 3 mps 750 mmHg 55%
11:00 +24°C° 0.2 mm 3 mps 750 mmHg 59%
12:00 +23°C° 0.2 mm 2 mps 750 mmHg 64%
13:00 +21°C° 0.2 mm 2 mps 750 mmHg 69%
14:00 +20°C° 0.5 mm 3 mps 749 mmHg 76%
15:00 +20°C° 0.5 mm 3 mps 749 mmHg 83%
16:00 +19°C° 0.5 mm 3 mps 748 mmHg 90%
17:00 +19°C° 0.1 mm 4 mps 748 mmHg 89%
18:00 +19°C° 0.1 mm 4 mps 747 mmHg 89%
19:00 +19°C° 0.1 mm 4 mps 747 mmHg 89%
20:00 +19°C° 1.8 mm 4 mps 746 mmHg 91%
21:00 +18°C° 1.8 mm 4 mps 746 mmHg 93%
22:00 +17°C° 1.8 mm 5 mps 745 mmHg 96%
23:00 +17°C° 2.7 mm 5 mps 744 mmHg 96%

6 Agosto, Viernes

Tiempo Temperatura Precipitaciones Viento Presión Humedad
00:00 +17°C° 2.7 mm 6 mps 743 mmHg 96%
01:00 +17°C° 2.7 mm 6 mps 742 mmHg 97%
02:00 +17°C° 1.5 mm 5 mps 741 mmHg 97%
03:00 +17°C° 1.5 mm 5 mps 741 mmHg 97%
04:00 +18°C° 1.5 mm 4 mps 740 mmHg 97%
05:00 +18°C° 1.5 mm 4 mps 739 mmHg 96%
06:00 +18°C° 1.5 mm 4 mps 739 mmHg 94%
07:00 +18°C° 1.5 mm 3 mps 738 mmHg 93%
08:00 +19°C° 0.5 mm 3 mps 738 mmHg 92%
09:00 +19°C° 0.5 mm 4 mps 739 mmHg 91%
10:00 +19°C° 0.5 mm 4 mps 739 mmHg 91%
11:00 +19°C° 1.2 mm 5 mps 740 mmHg 92%
12:00 +17°C° 1.2 mm 5 mps 740 mmHg 93%
13:00 +17°C° 1.2 mm 6 mps 741 mmHg 94%
14:00 +16°C° 0.6 mm 6 mps 742 mmHg 94%
15:00 +16°C° 0.6 mm 7 mps 742 mmHg 94%
16:00 +16°C° 0.6 mm 7 mps 743 mmHg 94%
17:00 +16°C° 0.1 mm 7 mps 743 mmHg 94%
18:00 +16°C° 0.1 mm 6 mps 743 mmHg 93%
19:00 +16°C° 0.1 mm 6 mps 744 mmHg 92%
20:00 +16°C° 0 mm 5 mps 744 mmHg 93%
21:00 +16°C° 0 mm 5 mps 745 mmHg 93%
22:00 +15°C° 0 mm 5 mps 745 mmHg 93%
23:00 +15°C° 0 mm 4 mps 746 mmHg 93%

7 Agosto, Sábado

Tiempo Temperatura Precipitaciones Viento Presión Humedad
00:00 +15°C° 0 mm 4 mps 746 mmHg 94%
01:00 +15°C° 0 mm 4 mps 746 mmHg 94%
02:00 +14°C° 0 mm 4 mps 747 mmHg 94%
03:00 +14°C° 0 mm 4 mps 747 mmHg 94%
04:00 +14°C° 0 mm 3 mps 747 mmHg 94%
05:00 +15°C° 0 mm 4 mps 747 mmHg 90%
06:00 +17°C° 0 mm 4 mps 748 mmHg 85%
07:00 +19°C° 0 mm 4 mps 748 mmHg 80%
08:00 +20°C° 0 mm 4 mps 749 mmHg 73%
09:00 +22°C° 0 mm 4 mps 749 mmHg 67%
10:00 +25°C° 0 mm 5 mps 749 mmHg 60%
11:00 +25°C° 0 mm 5 mps 749 mmHg 57%
12:00 +26°C° 0 mm 5 mps 749 mmHg 53%
13:00 +27°C° 0 mm 5 mps 750 mmHg 50%
14:00 +27°C° 0 mm 4 mps 750 mmHg 49%
15:00 +27°C° 0 mm 3 mps 750 mmHg 49%
16:00 +27°C° 0 mm 3 mps 750 mmHg 49%
17:00 +26°C° 0 mm 2 mps 750 mmHg 53%
18:00 +25°C° 0 mm 2 mps 750 mmHg 58%
19:00 +23°C° 0 mm 1 mps 750 mmHg 62%
20:00 +21°C° 0 mm 2 mps 751 mmHg 65%
21:00 +21°C° 0 mm 2 mps 751 mmHg 68%
22:00 +20°C° 0 mm 2 mps 751 mmHg 72%
23:00 +19°C° 0 mm 3 mps 751 mmHg 74%
Mostrar más

Necesitamos Su Consentimiento

Meteoprog y nuestros Proveedores de Servicios pueden almacenar y acceder a sus datos personales como cookies, identificadores de dispositivo u otras tecnologías similares de su dispositivo y procesar dichos datos para personalizar contenido y anuncios, además de ofrecer funciones de redes sociales y analizar el tráfico.

  • Almacenar y/o acceder a información en su dispositivo

    Se puede almacenar o acceder a cookies, identificadores de dispositivo u otra información de su dispositivo para los fines anteriormente indicados.

  • Anuncios y contenido personalizados, medición de anuncios y contenido, percepciones del público, y desarrollo de productos

    Los anuncios y el contenido pueden personalizarse en base a su perfil. Se pueden añadir más datos para personalizar mejor los anuncios y contenidos. Se puede medir el rendimiento de los anuncios y contenidos. Se puede obtener la percepción sobre el público que ha visto los anuncios y contenidos. Dichos datos pueden usarse para desarrollar o mejorar la experiencia del usuario, sistemas y software.

Al hacer clic en ‘Estoy De Acuerdo’ usted permitirá el uso de las cookies, identificadores de dispositivo, balizas web u otras tecnologías similares indicadas. Su configuración puede cambiarse desde el navegador de su dispositivo.

Para ciertos fines, los intereses legítimos pueden ser considerados por encima del consentimiento. Puede leer más sobre ello en nuestra Política de Privacidad y Cookies.